Regional Weather Roundup
Issued by NWS

Home | Current Version | Previous Version | Text Only | Print | Product List | Glossary On
Versions: 1 2 3 4 5 6 7 8 9 10 11 12 13 14 15 16 17 18 19 20 21 22 23 24 25 26 27 28 29 30 31 32 33 34 35 36 37 38 39 40 41 42 43 44 45 46 47 48 49 50
000
ASCA44 KEWX 201320
RWRMX

LATIN AMERICA AND CARIBBEAN REGIONAL WEATHER ROUNDUP
NATIONAL WEATHER SERVICE AUSTIN/SAN ANTONIO TX
800 AM CDT WED SEP 20 2017

NOTE: "FAIR" INDICATED FEW OR NO CLOUDS BELOW 12,000 FEET WITH NO
SIGNIFICANT WEATHER AND/OR OBSTRUCTIONS TO VISIBILITY.

BAJA CALIFORNIA

CITY           SKY/WX    TMP DP  RH WIND       PRES   REMARKS
MEXICALI       CLEAR     64  46  52 S5        29.75
S.J. DEL CABO  CLEAR     75  70  83 CALM      29.87R
TIJUANA        PTCLDY    63  57  82 CALM      29.90S

NORTHWESTERN MEXICO

CITY           SKY/WX    TMP DP  RH WIND       PRES   REMARKS
CULIACAN       PTCLDY    81  77  89 CALM      29.84
DURANGO        PTCLDY    57  57 100 CALM      30.23
HERMOSILLO     CLEAR     82  77  83 E5        29.88R HX  91
OBREGON        CLEAR     79  73  83 E6        29.82

NORTHEASTERN MEXICO

CITY           SKY/WX    TMP DP  RH WIND       PRES   REMARKS
MATAMOROS      PTCLDY    81  77  89 SE5       29.88
MONCLOVA       PTCLDY    79  64  61 CALM      29.89R
MONTERREY      MOCLDY    73  70  88 CALM      29.89R
REYNOSA        PTCLDY    77  72  83 CALM      29.88R
SALTILLO       PTCLDY    66  54  63 CALM      30.13S
TORREON        MOCLDY    77  57  50 NW9       30.02
CD. VICTORIA   CLEAR     77  72  83 S12       29.88R

WESTERN MEXICO

CITY           SKY/WX    TMP DP  RH WIND       PRES   REMARKS
AGUASCALIENTES CLEAR     57  55  94 NE7       30.24R
COLIMA         PTCLDY    72  68  88 N14       29.99S
DEL BAJIO      PTCLDY    59  54  82 CALM      30.27R
GUADALAJARA    CLOUDY    64  63  94 CALM      30.16R FOG
MAZATLAN       MOCLDY    79  77  94 CALM      29.85R
P. VALLARTA    PTCLDY    79  79 100 NE5       29.85R
URUAPAN        MOCLDY    63  61  94 CALM      30.14R
ZACATECAS      PTCLDY    52  46  82 CALM      30.28R

CENTRAL MEXICO

CITY           SKY/WX    TMP DP  RH WIND       PRES   REMARKS
CUERNAVACA     MOCLDY    66  64  94 CALM      30.10
MEXICO CITY    MOCLDY    59  54  82 E8        30.31R
MORELIA        CLOUDY    59  59 100 CALM      30.20R
POZA RICA      CLEAR     77  73  88 CALM      29.94S FOG
QUERETARO      MOCLDY    61  57  88 NE7       30.29
S. LUIS POTOSI MOCLDY    55  55 100 CALM      30.24R
TAMPICO        PTCLDY    79  77  94 MISG      29.90R
TOLUCA         MOCLDY    52  48  87 CALM      30.35R FOG

SOUTHERN MEXICO

CITY           SKY/WX    TMP DP  RH WIND       PRES   REMARKS
ACAPULCO       LGT RAIN  73  73 100 N6        29.86S
B. DE HUATULCO CLOUDY   N/A N/A N/A CALM      29.91R
OAXACA         CLOUDY    61  59  94 CALM      30.16S
P. ESCONDIDO     N/A    N/A N/A N/A MISG        N/A
VERACRUZ       PTSUNNY   77  75  94 NW3       29.88S
ZIHUATANEJO    MOCLDY    77  75  94 NE2       29.84R

YUCATAN PENINSULA

CITY           SKY/WX    TMP DP  RH WIND       PRES   REMARKS
CAMPECHE       CLOUDY    79  79 100 E6        29.89R HAZE
CANCUN         MOSUNNY   79  77  94 NE3       29.95R
CHETUMAL       MOSUNNY   84  77  79 SE9       29.89R HX  94
CD. DEL CARMEN PTSUNNY  N/A N/A N/A E12       29.89R
COZUMEL        MOSUNNY   82  77  83 SE3       29.92R HX  91
MERIDA         MOSUNNY   81  77  89 E7        29.93R
MINATITLAN     CLOUDY    77  75  94 CALM      29.86
TAPACHULA      PTSUNNY   75  73  94 E3        29.88R
TUX. GUTIERREZ CLOUDY    72  72 100 S2        29.96R FOG
VILLAHERMOSA   PTSUNNY   77  77 100 CALM      29.90R

CENTRAL AMERICA

CITY           SKY/WX    TMP DP  RH WIND       PRES   REMARKS
BELIZE CITY    MOSUNNY   84  79  84 E7        29.87R HX  96
MANAGUA        MOSUNNY   79  73  83 SE5       29.83F

CARIBBEAN

CITY           SKY/WX    TMP DP  RH WIND       PRES   REMARKS
ARUBA          MOSUNNY   86  79  79 S5        29.86R HX  99
KINGSTON       MOSUNNY   84  73  70 N7        29.89S HX  91
NASSAU         MOSUNNY   86  75  70 CALM      29.99S HX  95
SANTO DOMINGO  PTSUNNY   81  75  83 NW9       29.86S

$$





USA.gov is the U.S. government's official web portal to all federal, state and local government web resources and services.